Regional Weather Roundup
Issued by NWS

Home | Current Version | Previous Version | Text Only | Print | Product List | Glossary Off
Versions: 1 2 3 4 5 6 7 8 9 10 11 12 13 14 15 16 17 18 19 20 21 22 23 24 25 26 27 28 29 30 31 32 33 34 35 36 37 38 39 40 41 42 43 44 45 46 47 48 49 50

075
ASUS45 KBOI 260610
RWRID

IDAHO REGIONAL WEATHER ROUNDUP
NATIONAL WEATHER SERVICE BOISE ID
1200 AM MDT SUN MAR 26 2017

NOTE: "FAIR" INDICATES FEW OR NO CLOUDS BELOW 12000 FEET
WITH NO SIGNIFICANT WEATHER AND/OR OBSTRUCTIONS TO VISIBILITY

IDZ012-014-260700-
SOUTHWEST IDAHO


CITY           SKY/WX    TMP DP  RH WIND       PRES   REMARKS
BOISE          MOCLDY    43  31  62 SE10      30.00S
CALDWELL       MOCLDY    41  35  79 NE6       30.00F
MOUNTAIN HOME  CLEAR     36  35  99 S6        30.01S WCI  31
$$

IDZ016-017-260700-
SOUTHCENTRAL IDAHO


CITY           SKY/WX    TMP DP  RH WIND       PRES   REMARKS
BURLEY         CLEAR     36  28  73 SW12      30.01R WCI  28
JEROME         CLEAR     40  30  67 SW6       30.02S
TWIN FALLS     CLEAR     36  29  75 S13       30.02S WCI  27
$$

IDZ019>023-260700-
SOUTHEAST IDAHO


CITY           SKY/WX    TMP DP  RH WIND       PRES   REMARKS
IDAHO FALLS    CLEAR     38  27  64 S12       29.98S WCI  30
POCATELLO      CLEAR     40  28  62 SW10      30.00S WCI  33
REXBURG        CLEAR     37  25  61 S8        29.97S WCI  31
$$

IDZ006-010-011-018-031-032-260700-
CENTRAL IDAHO MOUNTAINS


CITY           SKY/WX    TMP DP  RH WIND       PRES   REMARKS
MCCALL         PTCLDY    29  24  82 CALM      29.98S
HAILEY         PTCLDY    34  25  69 NW6       30.01S WCI  29
STANLEY          N/A     24  19  81 W3        30.02S
SALMON         CLEAR    N/A N/A N/A MISG        N/A
CHALLIS        CLEAR     35  20  54 CALM      29.99S
$$

IDZ002-004-006-007-026-260700-
NORTHERN IDAHO


CITY           SKY/WX    TMP DP  RH WIND       PRES   REMARKS
LEWISTON       PTCLDY    41  35  79 S3        30.04S
LOWELL           N/A     41  37  86 CALM      30.10F
COEUR D`ALENE  MOCLDY    39  33  79 S9        30.01S WCI  33
MULLAN PASS    PTCLDY    25  22  88 W5        29.95S WCI  19
$$




USA.gov is the U.S. government's official web portal to all federal, state and local government web resources and services.